Regional Weather Roundup
Issued by NWS

Home | Current Version | Previous Version | Text Only | Print | Product List | Glossary Off
Versions: 1 2 3 4 5 6 7 8 9 10 11 12 13 14 15 16 17 18 19 20 21 22 23 24 25 26 27 28 29 30 31 32 33 34 35 36 37 38 39 40 41 42 43 44 45 46 47 48 49 50

000
ASUS43 KLMK 181910
RWRKY
KENTUCKY REGIONAL WEATHER ROUNDUP
NATIONAL WEATHER SERVICE LOUISVILLE KY
200 PM EST WED JAN 18 2017

NOTE "FAIR" INDICATES FEW OR NO CLOUDS BELOW 12,000 FEET
WITH NO SIGNIFICANT WEATHER AND/OR OBSTRUCTIONS TO VISIBILITY.

KYZ001>023-026-027-061>063-070>075-182000-
WESTERN AND SOUTH CENTRAL KENTUCKY

CITY           SKY/WX    TMP DP  RH WIND       PRES   REMARKS
PADUCAH        CLOUDY    45  37  73 VRB3      30.19F
HENDERSON      CLOUDY    43  36  75 S3        30.20F
OWENSBORO      CLOUDY    43  36  76 S3        30.21F
HOPKINSVILLE   CLOUDY    46  40  77 E6        30.18F
BOWLING GREEN  CLOUDY    50  38  63 CALM      30.19F
GLASGOW        CLOUDY    49  38  64 SW3       30.18F
$$

KYZ024-025-028>034-038-045-046-053-182000-
NORTH CENTRAL KENTUCKY

CITY           SKY/WX    TMP DP  RH WIND       PRES   REMARKS
LOUISVILLE/SDF CLOUDY    44  35  70 S3        30.19F
LOUISVILLE/LOU CLOUDY    44  35  70 W3        30.20F
FORT KNOX      CLOUDY    44  35  72 CALM      30.17F
$$

KYZ035>037-039>044-047>052-055>060-089>105-182000-
NORTHEAST KENTUCKY

CITY           SKY/WX    TMP DP  RH WIND       PRES   REMARKS
LEXINGTON      CLOUDY    43  37  79 W5        30.18F
COVINGTON      CLOUDY    41  36  82 W9        30.16F
FRANKFORT      CLOUDY    43  35  73 W5        30.18F
$$

KYZ054-064>069-076>088-106>120-182000-
SOUTHEAST KENTUCKY

CITY           SKY/WX    TMP DP  RH WIND       PRES   REMARKS
JACKSON        CLOUDY    45  37  73 VRB3      30.17F
LONDON         CLOUDY    48  35  60 SW3       30.17F
SOMERSET       CLOUDY    46  36  66 W5        30.20F
MIDDLESBORO    MOSUNNY   52  39  61 NW6       30.16F
MONTICELLO     CLOUDY    48  37  65 NW8       30.20F
$$





USA.gov is the U.S. government's official web portal to all federal, state and local government web resources and services.